Location: Miles
(41.4492°N, 81.6087°W)
Time: 08:06:01
(UTC+00:00)

Transit 2A - Pass Details

Date: 15 September 2024
Orbit: 590 x 960 km, 66.7° (Epoch: 09 October)

Event Time Altitude Azimuth Distance (km) Brightness Sun altitude
Rises 01:10:59 0° 241° (WSW) 3,433 10.0 -18.1°
Reaches altitude 10° 01:13:42 10° 252° (WSW) 2,551 9.4 -18.6°
Maximum altitude 01:18:56 31° 313° (NW) 1,580 8.2 -19.5°
Drops below altitude 10° 01:24:28 10° 14° (NNE) 2,690 8.9 -20.4°
Sets 01:27:25 0° 25° (NNE) 3,650 9.5 -20.9°
